FW2617 Weather Reports


time (UTC)temp
C
wind
direction
speed
KPH
gust
KPH
rain 1hr
cm
rain 24hr
cm
rain mn
cm
humidity
%
barometer
mb
20260906005403 33 129 8.0 17.7 0.00 0.00 0.00 54 1007.9
20260906004504 34 143 6.4 20.9 0.00 0.00 0.00 48 1007.7
20260906003604 35 147 3.2 11.3 0.00 0.00 0.00 46 1007.5
20260906002704 35 151 4.8 14.5 0.00 0.00 0.00 46 1007.5
20260906001804 35 145 6.4 16.1 0.00 0.00 0.00 45 1007.4
20260906000904 35 148 6.4 16.1 0.00 0.00 0.00 44 1007.4
20260906000004 35 149 4.8 16.1 0.00 0.00 0.00 43 1007.3
20260905235405 36 152 4.8 17.7 0.00 0.00 0.00 43 1007.2
20260905234504 36 148 4.8 17.7 0.00 0.00 0.00 42 1007.1
20260905233604 36 137 4.8 14.5 0.00 0.00 0.00 43 1007.2
20260905232705 36 140 6.4 16.1 0.00 0.00 0.00 42 1007.1
20260905231826 37 133 4.8 16.1 0.00 0.00 0.00 40 1007.2
20260905230904 37 103 1.6 6.4 0.00 0.00 0.00 37 1007.1
20260905230004 38 91 1.6 4.8 0.00 0.00 0.00 37 1007.0
20260905225404 38 70 1.6 6.4 0.00 0.00 0.00 37 1007.1
20260905224504 38 64 3.2 8.0 0.00 0.00 0.00 37 1007.0
20260905223604 38 104 3.2 6.4 0.00 0.00 0.00 38 1007.0
20260905222704 38 82 3.2 9.7 0.00 0.00 0.00 38 1006.9
20260905221804 38 138 3.2 9.7 0.00 0.00 0.00 39 1006.9
20260905220925 38 166 3.2 8.0 0.00 0.00 0.00 38 1007.0
20260905220004 38 158 4.8 12.9 0.00 0.00 0.00 38 1007.1
20260905215404 38 142 3.2 9.7 0.00 0.00 0.00 38 1007.1
20260905214504 38 139 3.2 8.0 0.00 0.00 0.00 38 1007.3
20260905213604 38 61 3.2 6.4 0.00 0.00 0.00 39 1007.4
20260905212704 37 43 4.8 11.3 0.00 0.00 0.00 40 1007.6
20260905211804 37 29 3.2 6.4 0.00 0.00 0.00 40 1007.7
20260905210904 37 58 3.2 8.0 0.00 0.00 0.00 40 1007.8
20260905210025 37 64 3.2 8.0 0.00 0.00 0.00 43 1007.8
20260905205404 37 65 1.6 8.0 0.00 0.00 0.00 42 1008.0
20260905204504 37 121 3.2 9.7 0.00 0.00 0.00 40 1008.1
20260905203605 38 177 3.2 9.7 0.00 0.00 0.00 39 1008.1
20260905202725 38 204 3.2 8.0 0.00 0.00 0.00 38 1008.2
20260905201805 37 195 3.2 8.0 0.00 0.00 0.00 39 1008.3
20260905200904 37 166 3.2 8.0 0.00 0.00 0.00 40 1008.6
20260905200025 38 132 3.2 9.7 0.00 0.00 0.00 39 1008.7
20260905195405 38 161 3.2 9.7 0.00 0.00 0.00 38 1008.8
20260905194504 39 208 3.2 11.3 0.00 0.00 0.00 37 1009.0
20260905193604 39 143 3.2 11.3 0.00 0.00 0.00 39 1009.1
20260905192704 38 69 3.2 8.0 0.00 0.00 0.00 40 1009.2
20260905191804 38 102 3.2 11.3 0.00 0.00 0.00 41 1009.3
20260905190904 37 290 4.8 14.5 0.00 0.00 0.00 40 1009.4
20260905190004 37 211 4.8 12.9 0.00 0.00 0.00 39 1009.7
20260905185404 37 205 3.2 12.9 0.00 0.00 0.00 41 1009.8
20260905184504 37 242 3.2 12.9 0.00 0.00 0.00 41 1009.9
20260905183625 37 160 4.8 16.1 0.00 0.00 0.00 42 1010.1
20260905182704 37 58 4.8 16.1 0.00 0.00 0.00 43 1010.2
20260905181804 37 108 3.2 9.7 0.00 0.00 0.00 43 1010.3
20260905180904 36 124 4.8 14.5 0.00 0.00 0.00 45 1010.5
20260905180004 36 166 3.2 12.9 0.00 0.00 0.00 47 1010.6
20260905175404 35 194 3.2 11.3 0.00 0.00 0.00 47 1010.7
20260905174504 35 167 1.6 8.0 0.00 0.00 0.00 47 1010.9
20260905173604 35 180 6.4 17.7 0.00 0.00 0.00 47 1011.0
20260905172725 35 161 4.8 12.9 0.00 0.00 0.00 47 1011.1
20260905171804 35 168 4.8 14.5 0.00 0.00 0.00 48 1011.2
20260905170926 35 125 3.2 11.3 0.00 0.00 0.00 49 1011.3
20260905170025 34 199 6.4 17.7 0.00 0.00 0.00 51 1011.3
20260905165425 34 280 4.8 17.7 0.00 0.00 0.00 52 1011.3
20260905164525 33 257 4.8 12.9 0.00 0.00 0.00 52 1011.3
20260905163604 33 192 6.4 16.1 0.00 0.00 0.00 53 1011.5
20260905162725 33 187 4.8 11.3 0.00 0.00 0.00 55 1011.4
20260905161825 32 199 4.8 11.3 0.00 0.00 0.00 58 1011.4
20260905160904 32 195 4.8 11.3 0.00 0.00 0.00 58 1011.4
20260905160004 31 192 3.2 11.3 0.00 0.00 0.00 59 1011.4
20260905155404 31 204 4.8 9.7 0.00 0.00 0.00 60 1011.4
20260905154504 31 186 4.8 17.7 0.00 0.00 0.00 60 1011.4
20260905153604 31 165 4.8 12.9 0.00 0.00 0.00 61 1011.4
20260905152704 30 183 3.2 9.7 0.00 0.00 0.00 63 1011.3
20260905151825 30 180 4.8 11.3 0.00 0.00 0.00 64 1011.3
20260905150904 30 182 4.8 9.7 0.00 0.00 0.00 65 1011.3
20260905150004 29 190 4.8 9.7 0.00 0.00 0.00 67 1011.3
20260905145404 28 196 3.2 8.0 0.00 0.00 0.00 69 1011.3
20260905144504 28 200 3.2 8.0 0.00 0.00 0.00 72 1011.3
20260905143604 28 202 4.8 11.3 0.00 0.00 0.00 75 1011.3
20260905142704 27 199 4.8 11.3 0.00 0.00 0.00 77 1011.4
20260905141804 27 191 3.2 9.7 0.00 0.00 0.00 79 1011.3
20260905140904 26 203 1.6 6.4 0.00 0.00 0.00 82 1011.4
20260905140005 26 189 3.2 6.4 0.00 0.00 0.00 83 1011.3
20260905135404 26 197 1.6 8.0 0.00 0.00 0.00 84 1011.2
20260905134504 26 175 1.6 8.0 0.00 0.00 0.00 84 1011.1
20260905133604 25 179 1.6 6.4 0.00 0.00 0.00 85 1011.0
20260905132704 25 187 3.2 8.0 0.00 0.00 0.00 85 1010.9
20260905131825 25 174 3.2 9.7 0.00 0.00 0.00 86 1011.0
20260905130904 24 168 3.2 9.7 0.00 0.00 0.00 87 1010.8
20260905130025 24 166 3.2 8.0 0.00 0.00 0.00 87 1010.7
20260905125425 24 166 3.2 9.7 0.00 0.00 0.00 87 1010.9
20260905124504 24 176 0.0 6.4 0.00 0.00 0.00 87 1010.8
20260905123604 24 0 0.0 0.0 0.00 0.00 0.00 87 1010.9
20260905122704 24 0 0.0 0.0 0.00 0.00 0.00 86 1010.8
20260905121826 24 0 0.0 0.0 0.00 0.00 0.00 86 1010.9
20260905120904 24 0 0.0 0.0 0.00 0.00 0.00 86 1010.8
20260905120004 24 0 0.0 0.0 0.00 0.00 0.00 85 1010.8
20260905115405 24 0 0.0 0.0 0.00 0.00 0.00 85 1010.6
20260905114525 24 0 0.0 0.0 0.00 0.00 0.00 85 1010.7
20260905113604 24 0 0.0 0.0 0.00 0.00 0.00 85 1010.6
20260905112704 24 0 0.0 0.0 0.00 0.00 0.00 85 1010.6
20260905111804 24 0 0.0 0.0 0.00 0.00 0.00 85 1010.5
20260905110904 25 0 0.0 0.0 0.00 0.00 0.00 85 1010.5
20260905110004 25 0 0.0 0.0 0.00 0.00 0.00 84 1010.5
20260905105425 25 0 0.0 0.0 0.00 0.00 0.00 84 1010.5
20260905104504 25 0 0.0 0.0 0.00 0.00 0.00 84 1010.4
20260905103604 25 0 0.0 0.0 0.00 0.00 0.00 84 1010.4
20260905102705 25 0 0.0 0.0 0.00 0.00 0.00 83 1010.3
20260905101825 25 0 0.0 0.0 0.00 0.00 0.00 83 1010.3
20260905100905 25 159 0.0 6.4 0.00 0.00 0.00 83 1010.4
20260905100025 25 0 0.0 0.0 0.00 0.00 0.00 83 1010.4
20260905095404 25 207 0.0 1.6 0.00 0.00 0.00 83 1010.4
20260905094504 25 207 0.0 3.2 0.00 0.00 0.00 82 1010.5
20260905093604 25 204 0.0 4.8 0.00 0.00 0.00 82 1010.5
20260905092704 25 210 0.0 4.8 0.00 0.00 0.00 81 1010.3
20260905091804 25 194 0.0 4.8 0.00 0.00 0.00 82 1010.3
20260905090904 25 0 0.0 0.0 0.00 0.00 0.00 81 1010.2
20260905090004 25 0 0.0 0.0 0.00 0.00 0.00 81 1010.3
20260905085425 25 0 0.0 0.0 0.00 0.00 0.00 80 1010.2
20260905084504 25 173 0.0 4.8 0.00 0.00 0.00 80 1010.2
20260905083604 25 175 1.6 6.4 0.00 0.00 0.00 80 1010.1
20260905082725 26 167 1.6 6.4 0.00 0.00 0.00 80 1010.1
20260905081825 26 159 1.6 6.4 0.00 0.00 0.00 79 1010.1
20260905080904 26 154 0.0 6.4 0.00 0.00 0.00 79 1010.1
20260905080025 26 0 0.0 0.0 0.00 0.00 0.00 79 1010.2
20260905075404 26 0 0.0 0.0 0.00 0.00 0.00 78 1010.1
20260905074525 26 177 0.0 3.2 0.00 0.00 0.00 78 1010.1
20260905073604 26 185 0.0 6.4 0.00 0.00 0.00 78 1010.0
20260905072704 26 196 1.6 6.4 0.00 0.00 0.00 77 1010.1
20260905071804 26 184 1.6 6.4 0.00 0.00 0.00 77 1010.2
20260905070904 26 182 1.6 6.4 0.00 0.00 0.00 76 1010.3
20260905070004 27 180 1.6 6.4 0.00 0.00 0.00 76 1010.4
20260905065425 27 174 1.6 6.4 0.00 0.00 0.00 75 1010.5
20260905064504 27 206 0.0 4.8 0.00 0.00 0.00 75 1010.6
20260905063604 27 201 0.0 4.8 0.00 0.00 0.00 74 1010.6
20260905062725 27 193 0.0 4.8 0.00 0.00 0.00 74 1010.7
20260905061804 27 189 0.0 4.8 0.00 0.00 0.00 74 1010.6
20260905060925 27 184 1.6 6.4 0.00 0.00 0.00 73 1010.6
20260905060004 27 175 1.6 8.0 0.00 0.00 0.00 72 1010.6
20260905055404 27 169 1.6 8.0 0.00 0.00 0.00 72 1010.6
20260905054504 28 166 3.2 8.0 0.00 0.00 0.00 71 1010.4
20260905053604 28 169 3.2 8.0 0.00 0.00 0.00 71 1010.3
20260905052725 28 173 3.2 8.0 0.00 0.00 0.00 70 1010.3
20260905051804 28 179 1.6 6.4 0.00 0.00 0.00 70 1010.3
20260905050904 28 167 3.2 9.7 0.00 0.00 0.00 69 1010.3
20260905050004 28 174 4.8 11.3 0.00 0.00 0.00 68 1010.1
20260905045404 28 170 4.8 11.3 0.00 0.00 0.00 68 1010.0
20260905044504 29 167 4.8 12.9 0.00 0.00 0.00 68 1010.1
20260905043604 29 167 6.4 17.7 0.00 0.00 0.00 67 1010.1
20260905042704 29 168 6.4 16.1 0.00 0.00 0.00 67 1010.1
20260905041804 29 167 6.4 16.1 0.00 0.00 0.00 66 1010.1
20260905040904 30 166 6.4 16.1 0.00 0.00 0.00 65 1010.2
20260905040004 30 162 6.4 16.1 0.00 0.00 0.00 64 1010.2
20260905035404 30 165 4.8 12.9 0.00 0.00 0.00 63 1010.3
20260905034504 30 161 6.4 12.9 0.00 0.00 0.00 62 1010.3
20260905033604 30 163 8.0 16.1 0.00 0.00 0.00 61 1010.2
20260905032704 30 163 8.0 17.7 0.00 0.00 0.00 60 1010.2
20260905031804 30 165 6.4 19.3 0.00 0.00 0.00 60 1010.2
20260905030925 31 165 6.4 14.5 0.00 0.00 0.00 59 1010.1
20260905030004 31 162 8.0 17.7 0.00 0.00 0.00 58 1010.1
20260905025404 31 165 6.4 17.7 0.00 0.00 0.00 58 1010.0
20260905024504 31 167 6.4 16.1 0.00 0.00 0.00 57 1009.9
20260905023604 31 165 6.4 14.5 0.00 0.00 0.00 56 1009.7
20260905022704 31 166 6.4 14.5 0.00 0.00 0.00 55 1009.5
20260905021804 31 161 6.4 14.5 0.00 0.00 0.00 55 1009.3
20260905020904 32 159 6.4 14.5 0.00 0.00 0.00 54 1009.2
20260905020004 32 153 4.8 12.9 0.00 0.00 0.00 53 1009.0
20260905015404 32 152 4.8 11.3 0.00 0.00 0.00 52 1008.9
20260905014504 32 151 6.4 14.5 0.00 0.00 0.00 52 1008.8
20260905013604 32 148 6.4 14.5 0.00 0.00 0.00 51 1008.6
20260905012704 32 149 6.4 14.5 0.00 0.00 0.00 51 1008.5
20260905011804 33 151 4.8 11.3 0.00 0.00 0.00 50 1008.4
20260905010904 33 149 6.4 14.5 0.00 0.00 0.00 50 1008.4
20260905010025 33 150 6.4 14.5 0.00 0.00 0.00 49 1008.4